Weather History for Cape Girardeau, MO

Change the Weather History Date:

Monday, February 3, 2014

  Actual Average Record
Temperature  
Mean Temperature 22 °F 35 °F  
Max Temperature 32 °F 45 °F 70 °F (1962)
Min Temperature 11 °F 25 °F -8 °F (1985)
Degree Days  
Heating Degree Days 43 30  
Month to date heating degree days 99 91  
Since 1 July heating degree days 3083 2829  
Cooling Degree Days 0 0  
Month to date cooling degree days 0 0  
Year to date cooling degree days 0 0  
Moisture  
Dew Point 16 °F    
Average Humidity 71    
Maximum Humidity 88    
Minimum Humidity 54    
Precipitation  
Precipitation T in 0.12 in 1.15 in (1997)
Month to date precipitation 0.45 0.38  
Year to date precipitation 2.45 3.85  
Sea Level Pressure  
Sea Level Pressure 30.32 in    
Wind  
Wind Speed 8 mph (NNE)    
Max Wind Speed 20 mph    
Max Gust Speed 23 mph    
Visibility 9 miles    
Events      
T = Trace of Precipitation, MM = Missing Value Source: NWS Daily Summary

Daily Weather History Graph

Daily Weather History Graph

Search for Another Location

Airport:

Trip Planner

Search our weather history database for the weather conditions in past years. The results will help you decide how hot, cold, wet, or windy it might be!

Date:

Astronomy

Feb. 03, 2014 Rise Set
Actual Time 6:59 AM CST 5:25 PM CST
Civil Twilight 6:32 AM CST 5:52 PM CST
Nautical Twilight 6:01 AM CST 6:23 PM CST
Astronomical Twilight 5:30 AM CST 6:54 PM CST
Moon 9:08 AM CST (2/3) 10:07 PM CST (2/3)
Length of Visible Light 11h 20m
Length of Day
10h 25m
Waxing Crescent, 20% of the Moon is Illuminated
Feb 3
Waxing Crescent
Feb 6
First Quarter
Feb 14
Full
Feb 22
Last Quarter
Mar 1
New

Hourly Weather History & Observations

Time (CST) Temp. Windchill Dew Point Humidity Pressure Visibility Wind Dir Wind Speed Gust Speed Precip Events Conditions
12:13 AM 23.0 °F 10.6 °F 18.0 °F 81% 30.26 in 8.0 mi North 13.8 mph - 0.00 in   Overcast
12:45 AM 23.0 °F 10.6 °F 18.0 °F 81% 30.26 in 8.0 mi North 13.8 mph - 0.00 in   Overcast
12:53 AM 23.0 °F 10.1 °F 17.1 °F 78% 30.27 in 8.0 mi North 15.0 mph - 0.00 in   Overcast
1:53 AM 21.9 °F 10.4 °F 17.1 °F 82% 30.25 in 9.0 mi North 11.5 mph - 0.00 in   Overcast
2:20 AM 21.0 °F 9.3 °F 16.0 °F 81% 30.26 in 9.0 mi NNW 11.5 mph - 0.00 in   Mostly Cloudy
2:53 AM 19.9 °F 5.7 °F 15.1 °F 81% 30.29 in 9.0 mi North 16.1 mph - 0.00 in   Mostly Cloudy
3:53 AM 19.0 °F 4.5 °F 14.0 °F 81% 30.30 in 8.0 mi NNW 16.1 mph - N/A   Overcast
4:53 AM 16.0 °F 1.7 °F 12.0 °F 84% 30.32 in 9.0 mi North 13.8 mph - N/A   Mostly Cloudy
5:06 AM 16.0 °F 2.9 °F 10.9 °F 81% 30.31 in 9.0 mi North 11.5 mph - N/A   Scattered Clouds
5:53 AM 14.0 °F 2.0 °F 10.0 °F 84% 30.33 in 8.0 mi North 9.2 mph - N/A   Clear
6:53 AM 12.9 °F 0.7 °F 9.0 °F 84% 30.35 in 9.0 mi North 9.2 mph - N/A   Clear
7:53 AM 12.9 °F 2.6 °F 8.1 °F 81% 30.36 in 9.0 mi North 6.9 mph - N/A   Clear
8:53 AM 16.0 °F 3.6 °F 10.0 °F 77% 30.39 in 10.0 mi North 10.4 mph - N/A   Clear
9:53 AM 19.9 °F 10.1 °F 12.0 °F 71% 30.39 in 10.0 mi North 8.1 mph - 0.00 in   Clear
10:53 AM 24.1 °F 15.2 °F 14.0 °F 65% 30.40 in 10.0 mi NNE 8.1 mph - N/A   Clear
11:53 AM 26.1 °F 16.8 °F 15.1 °F 63% 30.35 in 10.0 mi NE 9.2 mph - N/A   Clear
12:53 PM 28.0 °F 20.0 °F 17.1 °F 63% 30.33 in 10.0 mi NNE 8.1 mph - N/A   Clear
1:53 PM 30.0 °F 23.2 °F 18.0 °F 61% 30.32 in 10.0 mi North 6.9 mph - N/A   Clear
2:53 PM 32.0 °F 28.7 °F 18.0 °F 56% 30.31 in 10.0 mi NE 3.5 mph - N/A   Clear
3:53 PM 32.0 °F 24.8 °F 19.9 °F 61% 30.31 in 10.0 mi NNE 8.1 mph - N/A   Clear
4:53 PM 30.0 °F 23.2 °F 19.9 °F 66% 30.32 in 10.0 mi NE 6.9 mph - N/A   Clear
5:53 PM 26.1 °F 20.5 °F 19.0 °F 75% 30.33 in 10.0 mi NNE 4.6 mph - N/A   Clear
6:53 PM 24.1 °F 16.0 °F 18.0 °F 77% 30.34 in 10.0 mi North 6.9 mph - N/A   Clear
7:53 PM 23.0 °F 14.7 °F 17.1 °F 78% 30.33 in 10.0 mi NE 6.9 mph - N/A   Clear
8:53 PM 23.0 °F - 18.0 °F 81% 30.33 in 10.0 mi Calm Calm - N/A   Clear
9:53 PM 21.9 °F - 17.1 °F 82% 30.33 in 10.0 mi Calm Calm - N/A   Clear
10:53 PM 21.9 °F 13.4 °F 18.0 °F 85% 30.32 in 10.0 mi NE 6.9 mph - N/A   Clear
11:53 PM 23.0 °F 18.4 °F 18.0 °F 81% 30.29 in 10.0 mi East 3.5 mph - N/A   Clear